Location: Blanot
(47.1713°N, 4.2340°E)
Time: 04:36:07
(UTC+00:00)

BREEZE-M DEB (TANK) - Pass Details

Date: 14 July 2020
Orbit: 427 x 13239 km, 46.0° (Epoch: 06 August)

Event Time Altitude Azimuth Distance (km) Brightness Sun altitude
Rises 00:02:17 0° 248° (WSW) 7,783 8.4 -21.1°
Reaches altitude 10° 00:09:23 10° 247° (WSW) 5,035 7.4 -21.0°
Maximum altitude 00:19:40 66° 169° (SSE) 964 3.7 -20.8°
Drops below altitude 10° 00:23:20 10° 86° (E) 1,870 5.7 -20.8°
Sets 00:24:50 0° 82° (E) 2,560 6.4 -20.7°
